Year,Month,Day,Hour,Minute,Value (Times are PST for temperature in C)
2016,07,17,10,23,19.80
2016,07,17,10,24,19.80
2016,07,17,10,25,19.70
2016,07,17,10,26,19.70
2016,07,17,10,27,19.70
2016,07,17,10,28,19.80
2016,07,17,10,29,19.80
2016,07,17,10,30,19.80
2016,07,17,10,31,19.80
2016,07,17,10,32,19.80
2016,07,17,10,33,19.80
2016,07,17,10,34,19.90
2016,07,17,10,35,19.90
2016,07,17,10,36,20.00
2016,07,17,10,37,20.00
2016,07,17,10,38,20.00
2016,07,17,10,39,20.00
2016,07,17,10,40,20.00
2016,07,17,10,41,19.90
2016,07,17,10,42,20.00
2016,07,17,10,43,20.00
2016,07,17,10,44,20.00
2016,07,17,10,45,20.10
2016,07,17,10,46,20.10
2016,07,17,10,47,20.10
2016,07,17,10,48,20.10
2016,07,17,10,49,20.20
2016,07,17,10,50,20.20
2016,07,17,10,51,20.30
2016,07,17,10,52,20.30
2016,07,17,10,53,20.20
2016,07,17,10,54,20.30
2016,07,17,10,55,20.30
2016,07,17,10,56,20.30
2016,07,17,10,57,20.40
2016,07,17,10,58,20.50
2016,07,17,10,59,20.60
2016,07,17,11,00,20.60
2016,07,17,11,01,20.80
2016,07,17,11,02,20.80
2016,07,17,11,03,20.90
2016,07,17,11,04,21.00
2016,07,17,11,05,21.00
2016,07,17,11,06,21.00
2016,07,17,11,07,21.00
2016,07,17,11,08,21.10
2016,07,17,11,09,21.20
2016,07,17,11,10,21.20
2016,07,17,11,11,21.30
2016,07,17,11,12,21.30
2016,07,17,11,13,21.30
2016,07,17,11,14,21.30
2016,07,17,11,15,21.30
2016,07,17,11,16,21.30
2016,07,17,11,17,21.40
2016,07,17,11,18,21.40
2016,07,17,11,19,21.30
2016,07,17,11,20,21.30
2016,07,17,11,21,21.30
2016,07,17,11,22,21.30
2016,07,17,11,23,21.30
2016,07,17,11,24,21.20
2016,07,17,11,25,21.20
2016,07,17,11,26,21.20
2016,07,17,11,27,21.10
2016,07,17,11,28,21.20
2016,07,17,11,29,21.30
2016,07,17,11,30,21.40
2016,07,17,11,31,21.50
2016,07,17,11,32,21.50
2016,07,17,11,33,21.50
2016,07,17,11,34,21.40
2016,07,17,11,35,21.30
2016,07,17,11,36,21.20
2016,07,17,11,37,21.10
2016,07,17,11,38,21.10
2016,07,17,11,39,21.10
2016,07,17,11,40,21.10
2016,07,17,11,41,21.30
2016,07,17,11,42,21.30
2016,07,17,11,43,21.30
2016,07,17,11,44,21.40
2016,07,17,11,45,21.40
2016,07,17,11,46,21.40
2016,07,17,11,47,21.40
2016,07,17,11,48,21.40
2016,07,17,11,49,21.40
2016,07,17,11,50,21.40
2016,07,17,11,51,21.40
2016,07,17,11,52,21.40
2016,07,17,11,53,21.40
2016,07,17,11,54,21.40
2016,07,17,11,55,21.40
2016,07,17,11,56,21.40
2016,07,17,11,57,21.40
2016,07,17,11,58,21.30
2016,07,17,11,59,21.30
2016,07,17,12,00,21.40
2016,07,17,12,01,21.50
2016,07,17,12,02,21.60
2016,07,17,12,03,21.60
2016,07,17,12,04,21.60
2016,07,17,12,05,21.60
2016,07,17,12,06,21.50
2016,07,17,12,07,21.50
2016,07,17,12,08,21.50
2016,07,17,12,09,21.50
2016,07,17,12,10,21.50
2016,07,17,12,11,21.50
2016,07,17,12,12,21.50
2016,07,17,12,13,21.70
2016,07,17,12,14,21.80
2016,07,17,12,15,21.90
2016,07,17,12,16,21.90
2016,07,17,12,17,21.90
2016,07,17,12,18,21.90
2016,07,17,12,19,22.00
2016,07,17,12,20,22.00
2016,07,17,12,21,22.10
2016,07,17,12,22,22.10
2016,07,17,12,23,22.00
2016,07,17,12,24,21.90
2016,07,17,12,25,21.80
2016,07,17,12,26,21.80
2016,07,17,12,27,21.80
2016,07,17,12,28,21.80
2016,07,17,12,29,21.70
2016,07,17,12,30,21.80
2016,07,17,12,31,21.80
2016,07,17,12,32,21.60
2016,07,17,12,33,21.50
2016,07,17,12,34,21.40
2016,07,17,12,35,21.30
2016,07,17,12,36,21.30
2016,07,17,12,37,21.30
2016,07,17,12,38,21.30
2016,07,17,12,39,21.30
2016,07,17,12,40,21.30
2016,07,17,12,41,21.40
2016,07,17,12,42,21.40
2016,07,17,12,43,21.50
2016,07,17,12,44,21.60
2016,07,17,12,45,21.80
2016,07,17,12,46,21.80
2016,07,17,12,47,21.90
2016,07,17,12,48,22.00
2016,07,17,12,49,22.20
2016,07,17,12,50,22.30
2016,07,17,12,51,22.40
2016,07,17,12,52,22.40
2016,07,17,12,53,22.50
2016,07,17,12,54,22.50
2016,07,17,12,55,22.50
2016,07,17,12,56,22.50
2016,07,17,12,57,22.50
2016,07,17,12,58,22.50
2016,07,17,12,59,22.60
2016,07,17,13,00,22.60
2016,07,17,13,01,22.60
2016,07,17,13,02,22.60
2016,07,17,13,03,22.60
2016,07,17,13,04,22.50
2016,07,17,13,05,22.40
2016,07,17,13,06,22.40
2016,07,17,13,07,22.40
2016,07,17,13,08,22.30
2016,07,17,13,09,22.40
2016,07,17,13,10,22.30
2016,07,17,13,11,22.30
2016,07,17,13,12,22.30
2016,07,17,13,13,22.30
2016,07,17,13,14,22.30
2016,07,17,13,15,22.40
2016,07,17,13,16,22.40
2016,07,17,13,17,22.30
2016,07,17,13,18,22.20
2016,07,17,13,19,22.10
2016,07,17,13,20,22.20
2016,07,17,13,21,22.30
2016,07,17,13,22,22.40
2016,07,17,13,23,22.50
2016,07,17,13,24,22.50
2016,07,17,13,25,22.40
2016,07,17,13,26,22.30
2016,07,17,13,27,22.30
2016,07,17,13,28,22.30
2016,07,17,13,29,22.40
2016,07,17,13,30,22.40
2016,07,17,13,31,22.50
2016,07,17,13,32,22.60
2016,07,17,13,33,22.50
2016,07,17,13,34,22.50
2016,07,17,13,35,22.60
2016,07,17,13,36,22.60
2016,07,17,13,37,22.60
2016,07,17,13,38,22.60
2016,07,17,13,39,22.60
2016,07,17,13,40,22.50
2016,07,17,13,41,22.40
2016,07,17,13,42,22.30
2016,07,17,13,43,22.30
2016,07,17,13,44,22.30
2016,07,17,13,45,22.20
2016,07,17,13,46,22.20
2016,07,17,13,47,22.30
2016,07,17,13,48,22.40
2016,07,17,13,49,22.40
2016,07,17,13,50,22.40
2016,07,17,13,51,22.50
2016,07,17,13,52,22.60
2016,07,17,13,53,22.60
2016,07,17,13,54,22.60
2016,07,17,13,55,22.60
2016,07,17,13,56,22.50
2016,07,17,13,57,22.50
2016,07,17,13,58,22.50
2016,07,17,13,59,22.50
2016,07,17,14,00,22.50
2016,07,17,14,01,22.50
2016,07,17,14,02,22.50
2016,07,17,14,03,22.50
2016,07,17,14,04,22.60
2016,07,17,14,05,22.70
2016,07,17,14,06,22.80
2016,07,17,14,07,22.90
2016,07,17,14,08,23.10
2016,07,17,14,09,23.20
2016,07,17,14,10,23.30
2016,07,17,14,11,23.40
2016,07,17,14,12,23.40
2016,07,17,14,13,23.40
2016,07,17,14,14,23.30
2016,07,17,14,15,23.30
2016,07,17,14,16,23.20
2016,07,17,14,17,23.10
2016,07,17,14,18,23.00
2016,07,17,14,19,23.00
2016,07,17,14,20,23.00
2016,07,17,14,21,23.10
2016,07,17,14,22,23.10
2016,07,17,14,23,23.00
2016,07,17,14,24,22.90
2016,07,17,14,25,22.80
2016,07,17,14,26,22.80
2016,07,17,14,27,22.70
2016,07,17,14,28,22.70
2016,07,17,14,29,22.70
2016,07,17,14,30,22.70
2016,07,17,14,31,22.80
2016,07,17,14,32,22.80
2016,07,17,14,33,22.80
2016,07,17,14,34,22.90
2016,07,17,14,35,22.80
2016,07,17,14,36,22.80
2016,07,17,14,37,22.80
2016,07,17,14,38,22.70
2016,07,17,14,39,22.70
2016,07,17,14,40,22.70
2016,07,17,14,41,22.70
2016,07,17,14,42,22.80
2016,07,17,14,43,22.80
2016,07,17,14,44,22.80
2016,07,17,14,45,22.80
2016,07,17,14,46,22.90
2016,07,17,14,47,22.90
2016,07,17,14,48,22.90
2016,07,17,14,49,23.00
2016,07,17,14,50,23.10
2016,07,17,14,51,23.20
2016,07,17,14,52,23.20
2016,07,17,14,53,23.20
2016,07,17,14,54,23.20
2016,07,17,14,55,23.20
2016,07,17,14,56,23.30
2016,07,17,14,57,23.40
2016,07,17,14,58,23.40
2016,07,17,14,59,23.40
2016,07,17,15,00,23.40
2016,07,17,15,01,23.40
2016,07,17,15,02,23.40
2016,07,17,15,03,23.50
2016,07,17,15,04,23.50
2016,07,17,15,05,23.30
2016,07,17,15,06,23.10
2016,07,17,15,07,23.10
2016,07,17,15,08,23.10
2016,07,17,15,09,23.00
2016,07,17,15,10,22.90
2016,07,17,15,11,22.90
2016,07,17,15,12,22.90
2016,07,17,15,13,22.90
2016,07,17,15,14,22.90
2016,07,17,15,15,22.80
2016,07,17,15,16,22.70
2016,07,17,15,17,22.70
2016,07,17,15,18,22.60
2016,07,17,15,19,22.50
2016,07,17,15,20,22.50
2016,07,17,15,21,22.50
2016,07,17,15,22,22.60
2016,07,17,15,23,22.70
2016,07,17,15,24,22.90
2016,07,17,15,25,23.00
2016,07,17,15,26,23.10
2016,07,17,15,27,23.10
2016,07,17,15,28,23.00
2016,07,17,15,29,23.00
2016,07,17,15,30,23.10
2016,07,17,15,31,23.20
2016,07,17,15,32,23.30
2016,07,17,15,33,23.30
2016,07,17,15,34,23.20
2016,07,17,15,35,23.20
2016,07,17,15,36,23.10
2016,07,17,15,37,23.20
2016,07,17,15,38,23.30
2016,07,17,15,39,23.30
2016,07,17,15,40,23.30
2016,07,17,15,41,23.30
2016,07,17,15,42,23.20
2016,07,17,15,43,23.10
2016,07,17,15,44,23.10
2016,07,17,15,45,23.00
2016,07,17,15,46,23.00
2016,07,17,15,47,23.00
2016,07,17,15,48,23.10
2016,07,17,15,49,23.20
2016,07,17,15,50,23.20
2016,07,17,15,51,23.10
2016,07,17,15,52,23.00
2016,07,17,15,53,22.90
2016,07,17,15,54,22.80
2016,07,17,15,55,22.80
2016,07,17,15,56,22.70
2016,07,17,15,57,22.60
2016,07,17,15,58,22.60
2016,07,17,15,59,22.60
2016,07,17,16,00,22.60
2016,07,17,16,01,22.60
2016,07,17,16,02,22.60
2016,07,17,16,03,22.70
2016,07,17,16,04,22.90
2016,07,17,16,05,23.00
2016,07,17,16,06,23.10
2016,07,17,16,07,23.10
2016,07,17,16,08,23.20
2016,07,17,16,09,23.20
2016,07,17,16,10,23.20
2016,07,17,16,11,23.20
2016,07,17,16,12,23.10
2016,07,17,16,13,23.20
2016,07,17,16,14,23.30
2016,07,17,16,15,23.50
2016,07,17,16,16,23.50
2016,07,17,16,17,23.50
2016,07,17,16,18,23.40
2016,07,17,16,19,23.50
2016,07,17,16,20,23.60
2016,07,17,16,21,23.60
2016,07,17,16,22,23.60
2016,07,17,16,23,23.50
2016,07,17,16,24,23.50
2016,07,17,16,25,23.40
2016,07,17,16,26,23.30
2016,07,17,16,27,23.40
2016,07,17,16,28,23.50
2016,07,17,16,29,23.50
2016,07,17,16,30,23.50
2016,07,17,16,31,23.40
2016,07,17,16,32,23.40
2016,07,17,16,33,23.40
2016,07,17,16,34,23.30
2016,07,17,16,35,23.30
2016,07,17,16,36,23.30
2016,07,17,16,37,23.20
2016,07,17,16,38,23.20
2016,07,17,16,39,23.20
2016,07,17,16,40,23.20
2016,07,17,16,41,23.20
2016,07,17,16,42,23.30
2016,07,17,16,43,23.40
2016,07,17,16,44,23.60
2016,07,17,16,45,23.60
2016,07,17,16,46,23.60
2016,07,17,16,47,23.60
2016,07,17,16,48,23.50
2016,07,17,16,49,23.40
2016,07,17,16,50,23.50
2016,07,17,16,51,23.50
2016,07,17,16,52,23.50
2016,07,17,16,53,23.50
2016,07,17,16,54,23.40
2016,07,17,16,55,23.40
2016,07,17,16,56,23.30
2016,07,17,16,57,23.20
2016,07,17,16,58,23.20
2016,07,17,16,59,23.20
2016,07,17,17,00,23.20
2016,07,17,17,01,23.30
2016,07,17,17,02,23.30
2016,07,17,17,03,23.30
2016,07,17,17,04,23.30
2016,07,17,17,05,23.30
2016,07,17,17,06,23.30
2016,07,17,17,07,23.30
2016,07,17,17,08,23.30
2016,07,17,17,09,23.30
2016,07,17,17,10,23.30
2016,07,17,17,11,23.30
2016,07,17,17,12,23.40
2016,07,17,17,13,23.30
2016,07,17,17,14,23.30
2016,07,17,17,15,23.40
2016,07,17,17,16,23.40
2016,07,17,17,17,23.40
2016,07,17,17,18,23.40
2016,07,17,17,19,23.40
2016,07,17,17,20,23.40
2016,07,17,17,21,23.40
2016,07,17,17,22,23.40
2016,07,17,17,23,23.40
2016,07,17,17,24,23.50
2016,07,17,17,25,23.50
2016,07,17,17,26,23.60
2016,07,17,17,27,23.60
2016,07,17,17,28,23.60
2016,07,17,17,29,23.50
2016,07,17,17,30,23.40
2016,07,17,17,31,23.50
2016,07,17,17,32,23.60
2016,07,17,17,33,23.50
2016,07,17,17,34,23.40
2016,07,17,17,35,23.40
2016,07,17,17,36,23.50
2016,07,17,17,37,23.50
2016,07,17,17,38,23.40
2016,07,17,17,39,23.40
2016,07,17,17,40,23.30
2016,07,17,17,41,23.30
2016,07,17,17,42,23.30
2016,07,17,17,43,23.20
2016,07,17,17,44,23.10
2016,07,17,17,45,23.00
2016,07,17,17,46,23.00
2016,07,17,17,47,22.90
2016,07,17,17,48,22.90
2016,07,17,17,49,22.80
2016,07,17,17,50,22.80
2016,07,17,17,51,22.80
2016,07,17,17,52,22.80
2016,07,17,17,53,22.90
2016,07,17,17,54,22.90
2016,07,17,17,55,22.90
2016,07,17,17,56,22.90
2016,07,17,17,57,22.90
2016,07,17,17,58,22.80
2016,07,17,17,59,22.90
2016,07,17,18,00,22.90
2016,07,17,18,01,22.90
2016,07,17,18,02,22.90
2016,07,17,18,03,22.90
2016,07,17,18,04,22.80
2016,07,17,18,05,22.80
2016,07,17,18,06,22.80
2016,07,17,18,07,22.80
2016,07,17,18,08,22.90
2016,07,17,18,09,22.90
2016,07,17,18,10,22.90
2016,07,17,18,11,23.00
2016,07,17,18,12,23.00
2016,07,17,18,13,23.00
2016,07,17,18,14,23.10
2016,07,17,18,15,23.10
2016,07,17,18,16,23.10
2016,07,17,18,17,23.00
2016,07,17,18,18,22.90
2016,07,17,18,19,22.90
2016,07,17,18,20,22.90
2016,07,17,18,21,22.90
2016,07,17,18,22,22.90
2016,07,17,18,23,22.90
2016,07,17,18,24,22.90
2016,07,17,18,25,22.90
2016,07,17,18,26,23.00
2016,07,17,18,27,23.10
2016,07,17,18,28,23.10
2016,07,17,18,29,23.10
2016,07,17,18,30,23.00
2016,07,17,18,31,23.00
2016,07,17,18,32,23.00
2016,07,17,18,33,22.90
2016,07,17,18,34,22.90
2016,07,17,18,35,22.90
2016,07,17,18,36,22.90
2016,07,17,18,37,22.90
2016,07,17,18,38,22.90
2016,07,17,18,39,22.80
2016,07,17,18,40,22.70
2016,07,17,18,41,22.60
2016,07,17,18,42,22.50
2016,07,17,18,43,22.50
2016,07,17,18,44,22.50
2016,07,17,18,45,22.40
2016,07,17,18,46,22.40
2016,07,17,18,47,22.40
2016,07,17,18,48,22.40
2016,07,17,18,49,22.40
2016,07,17,18,50,22.40
2016,07,17,18,51,22.30
2016,07,17,18,52,22.30
2016,07,17,18,53,22.30
2016,07,17,18,54,22.30
2016,07,17,18,55,22.30
2016,07,17,18,56,22.30
2016,07,17,18,57,22.30
2016,07,17,18,58,22.40
2016,07,17,18,59,22.40
2016,07,17,19,00,22.30
2016,07,17,19,01,22.30
2016,07,17,19,02,22.30
2016,07,17,19,03,22.30
2016,07,17,19,04,22.30
2016,07,17,19,05,22.20
2016,07,17,19,06,22.10
2016,07,17,19,07,22.10
2016,07,17,19,08,22.10
2016,07,17,19,09,22.10
2016,07,17,19,10,22.10
2016,07,17,19,11,22.10
2016,07,17,19,12,22.10
2016,07,17,19,13,22.00
2016,07,17,19,14,22.00
2016,07,17,19,15,22.00
2016,07,17,19,16,21.90
2016,07,17,19,17,21.90
2016,07,17,19,18,21.90
2016,07,17,19,19,21.90
2016,07,17,19,20,21.90
2016,07,17,19,21,21.90
2016,07,17,19,22,22.00
2016,07,17,19,23,21.90
2016,07,17,19,24,21.90
2016,07,17,19,25,21.90
2016,07,17,19,26,21.90
2016,07,17,19,27,21.80
2016,07,17,19,28,21.80
2016,07,17,19,29,21.80
2016,07,17,19,30,21.80
2016,07,17,19,31,21.80
2016,07,17,19,32,21.80
2016,07,17,19,33,21.80
2016,07,17,19,34,21.80
2016,07,17,19,35,21.80
2016,07,17,19,36,21.80
2016,07,17,19,37,21.80
2016,07,17,19,38,21.80
